Regional Weather Roundup
Issued by NWS Kansas City/Pleasant Hill, MO

Home | Current Version | Previous Version | Text Only | Print | Product List | Glossary On
Versions: 1 2 3 4 5 6 7 8 9 10 11 12 13 14 15 16 17 18 19 20 21 22 23 24 25 26 27 28 29 30 31 32 33 34 35 36 37 38 39 40 41 42 43 44 45 46 47 48 49 50
000
ASUS43 KEAX 262310
RWREAX

WEATHER ROUNDUP FOR EASTERN KANSAS AND NORTHWEST MISSOURI
NATIONAL WEATHER SERVICE KANSAS CITY/PLEASANT HILL MO
600 PM CDT MON SEP 26 2016

KSZ040-057-103>105-MOZ028-029-037-043-270000-
...KANSAS CITY METROPOLITAN AREA...

CITY           SKY/WX    TMP DP  RH WIND       PRES   REMARKS
K.C. INTL      SUNNY     71  44  37 W6        30.13F
K.C. DOWNTOWN  SUNNY     73  42  32 W5        30.13F
LEES SUMMIT    SUNNY     71  42  35 W5        30.15F
OLATHE - IXD   SUNNY     70  43  37 NW6       30.16F
OLATHE - OJC   SUNNY     69  41  36 W7        30.16F
LAWRENCE       SUNNY     72  45  37 NW5       30.15F

$$

MOZ001>008-011>017-020>025-030>033-038>040-044>046-053-054-270000-
...NORTHERN AND CENTRAL MISSOURI...

CITY           SKY/WX    TMP DP  RH WIND       PRES   REMARKS
ST. JOSEPH     SUNNY     74  43  32 W6        30.11F
MOSBY          CLEAR     72  41  33 W5        30.12F
WHITEMAN AFB   SUNNY     71  39  31 W8        30.13F
CLINTON        SUNNY     70  45  40 NW6       30.16F
SEDALIA        SUNNY     73  40  30 NW7       30.15F
WARSAW         NOT AVBL
CHILLICOTHE      N/A     73  42  32 W3        30.12F
KIRKSVILLE     SUNNY     69  41  36 W10       30.10F

$$

MOZ041-047>049-056>058-063>065-088>090-097-270000-
...EASTERN AND SOUTHERN MISSOURI...

CITY           SKY/WX    TMP DP  RH WIND       PRES   REMARKS
ST. LOUIS INTL CLEAR     73  35  25 W12       30.09F
SPIRIT OF STL  CLEAR     71  41  33 W8        30.09F
COLUMBIA       SUNNY     71  37  28 NW10      30.12F
JEFFERSON CITY SUNNY     73  38  27 W9        30.11F
ROLLA          SUNNY     68  40  35 NW6       30.12F
OSAGE BEACH    SUNNY     70  43  37 W5        30.15F
SPRINGFIELD    SUNNY     70  38  31 NW12      30.15F
BRANSON        MOSUNNY   72  43  35 N5        30.15F
JOPLIN         SUNNY     70  42  36 N7        30.18S
WEST PLAINS    SUNNY     70  45  40 N9        30.14F

$$

IAZ060-094-KSZ022-034>040-054-083-096-NEZ052-066-093-270000-
...KANSAS...SOUTHEAST NEBRASKA AND IOWA...

CITY           SKY/WX    TMP DP  RH WIND       PRES   REMARKS
TOPEKA         SUNNY     74  43  32 W5        30.15F
MANHATTAN      SUNNY     74  43  32 W7        30.16F
EMPORIA        SUNNY     71  44  37 NW5       30.18F
CHANUTE        SUNNY     73  41  31 N6        30.17F
WICHITA        MOSUNNY   74  41  30 NW7       30.19F
OMAHA          SUNNY     76  39  26 W13       30.07F
LINCOLN        SUNNY     77  39  25 W7        30.10F
FALLS CITY     SUNNY     73  45  36 NW9       30.10F
LAMONI         SUNNY     72  42  34 W10       30.08F
DES MOINES     MOSUNNY   72  38  29 W14G25    30.03F

$$




USA.gov is the U.S. government's official web portal to all federal, state and local government web resources and services.